This is the latest recevied weather packets stored in our database for station/object M0HZQ-1. If no packets are shown the sender has not sent any weather packets the latest 10 day(s).
| Time | Temp. | Humidity | Pressure | Rain* | Wind** | Luminosity | Snow |
|---|---|---|---|---|---|---|---|
| 1777843369 | 20° C | 47% | 1011.6 hPa | 0 mm | - | - | - |
| 1777842289 | 20° C | 47% | 1011.4 hPa | 0 mm | - | - | - |
| 1777841289 | 20° C | 47% | 1011.1 hPa | 0 mm | - | - | - |
| 1777840294 | 20° C | 46% | 1011.1 hPa | 0 mm | - | - | - |
| 1777839289 | 20° C | 46% | 1010.9 hPa | 0 mm | - | - | - |
| 1777838174 | 20° C | 45% | 1010.7 hPa | 0 mm | - | - | - |
| 1777837157 | 20° C | 45% | 1010.6 hPa | 0 mm | - | - | - |
| 1777836174 | 20° C | 45% | 1010.3 hPa | 0 mm | - | - | - |
| 1777834994 | 20.56° C | 44% | 1010.2 hPa | 0 mm | - | - | - |
| 1777834029 | 20.56° C | 43% | 1010 hPa | 0 mm | - | - | - |
| 1777832897 | 21.11° C | 42% | 1009.9 hPa | 0 mm | - | - | - |
| 1777831784 | 21.67° C | 41% | 1009.7 hPa | 0 mm | - | - | - |
| 1777830589 | 21.67° C | 40% | 1009.6 hPa | 0 mm | - | - | - |
| 1777829554 | 21.67° C | 40% | 1009.6 hPa | 0 mm | - | - | - |
| 1777828544 | 22.22° C | 39% | 1009.7 hPa | 0 mm | - | - | - |
| 1777827577 | 23.33° C | 38% | 1009.7 hPa | 0 mm | - | - | - |
| 1777826549 | 23.33° C | 38% | 1009.7 hPa | 0 mm | - | - | - |
| 1777825514 | 23.33° C | 38% | 1009.7 hPa | 0 mm | - | - | - |
| 1777824537 | 23.33° C | 38% | 1009.6 hPa | 0 mm | - | - | - |
| 1777823417 | 23.33° C | 38% | 1009.7 hPa | 0 mm | - | - | - |
| 1777822284 | 23.89° C | 37% | 1009.8 hPa | 0 mm | - | - | - |
| 1777821249 | 23.89° C | 37% | 1010 hPa | 0 mm | - | - | - |
| 1777820144 | 23.89° C | 37% | 1010 hPa | 0 mm | - | - | - |
| 1777818947 | 25° C | 36% | 1010.1 hPa | 0 mm | - | - | - |
| 1777817944 | 24.44° C | 37% | 1010 hPa | 0 mm | - | - | - |
* Rain latest hour (hover to see other rain measurements)
** Current wind speed in m/s (hover to see current wind gust speed)